Surface/Precipitation History
05/20/2019 03:45  to  5/21/2019 03:45
Change End Date:
Date/Time
(MDT)
Sf
Temp Chem Water Layer Surface Precipitation
Sfc Pvt Sub Frz Factor Pct Dpth DpthThk IcePct Cond Salin FI Type Intens Accum Rate
05/21/2019 03:35 Wet 44.4F - - 32F 5 0% 0.00 in - 0% 0 mhos 1 - None None - -
05/21/2019 03:25 Wet 44.4F - - 32F 5 0% 0.00 in - 0% 0 mhos 1 - None None - -
05/21/2019 03:20 Wet 44.4F - - 32F 5 0% 0.00 in - 0% 0 mhos 1 - None None - -
05/21/2019 03:15 Wet 44.4F - - 32F 5 0% 0.00 in - 0% 0 mhos 1 - None None - -
05/21/2019 03:05 Wet 44.6F - - 32F 5 0% 0.00 in - 0% 0 mhos 1 - None None - -
05/21/2019 03:05 Wet 44.6F - - 32F 5 0% 0.00 in - 0% 0 mhos 1 - None None - -
05/21/2019 02:55 Wet 44.6F - - 32F 5 0% 0.00 in - 0% 0 mhos 1 - None None - -
05/21/2019 02:50 Wet 44.6F - - 32F 5 0% 0.00 in - 0% 0 mhos 1 - None None - -
05/21/2019 02:45 Wet 44.6F - - 32F 5 0% 0.00 in - 0% 0 mhos 1 - None None - -
05/21/2019 02:35 Wet 44.6F - - 32F 5 0% 0.00 in - 0% 0 mhos 2 - None None - -
05/21/2019 02:35 Wet 44.6F - - 32F 5 0% 0.00 in - 0% 0 mhos 2 - None None - -
05/21/2019 02:25 Wet 44.6F - - 32F 5 0% 0.00 in - 0% 0 mhos 2 - None None - -
05/21/2019 02:20 Wet 44.4F - - 32F 5 0% 0.00 in - 0% 0 mhos 2 - None None - -
05/21/2019 02:15 Wet 44.6F - - 32F 5 0% 0.00 in - 0% 0 mhos 3 - None None - -
05/21/2019 02:05 Wet 44.6F - - 32F 5 0% 0.00 in - 0% 0 mhos 3 - None None - -
Date/Time
(MDT)
Sf
Temp Chem Water Layer Surface Precipitation
Sfc Pvt Sub Frz Factor Pct Dpth DpthThk IcePct Cond Salin FI Type Intens Accum Rate
05/21/2019 02:05 Wet 44.6F - - 32F 5 0% 0.00 in - 0% 0 mhos 3 - None None - -
05/21/2019 01:55 Wet 45.0F - - 32F 5 0% 0.00 in - 0% 0 mhos 3 - None None - -
05/21/2019 01:50 Wet 45.1F - - 32F 5 0% 0.00 in - 0% 0 mhos 3 - None None - -
05/21/2019 01:45 Wet 45.1F - - 32F 5 0% 0.00 in - 0% 0 mhos 3 - None None - -
05/21/2019 01:35 Wet 45.3F - - 32F 5 0% 0.00 in - 0% 0 mhos 3 - Yes - - -
05/21/2019 01:35 Wet 45.3F - - 32F 5 0% 0.00 in - 0% 0 mhos 3 - Yes - - -
05/21/2019 01:25 Wet 45.7F - - 32F 5 0% 0.00 in - 0% 0 mhos 3 - None None - -
05/21/2019 01:20 Wet 45.7F - - 32F 5 0% 0.00 in - 0% 0 mhos 3 - None None - -
05/21/2019 01:15 Wet 45.5F - - 32F 5 0% 0.00 in - 0% 0 mhos 3 - None None - -
05/21/2019 01:05 Wet 45.7F - - 32F 5 0% 0.00 in - 0% 0 mhos 3 - None None - -
05/21/2019 01:05 Wet 45.7F - - 32F 5 0% 0.00 in - 0% 0 mhos 3 - None None - -
05/21/2019 00:55 Wet 45.7F - - 32F 5 0% 0.00 in - 0% 0 mhos 3 - Yes - - -
05/21/2019 00:50 Wet 45.9F - - 32F 5 0% 0.00 in - 0% 0 mhos 7 - None None - -
05/21/2019 00:45 Wet 45.9F - - 32F 5 0% 0.00 in - 0% 0 mhos 7 - None None - -
05/21/2019 00:35 Wet 45.9F - - 32F 5 0% 0.00 in - 0% 0 mhos 7 - None None - -
Date/Time
(MDT)
Sf
Temp Chem Water Layer Surface Precipitation
Sfc Pvt Sub Frz Factor Pct Dpth DpthThk IcePct Cond Salin FI Type Intens Accum Rate
05/21/2019 00:25 Wet 46.0F - - 32F 5 0% 0.00 in - 0% 0 mhos 7 - None None - -
05/21/2019 00:20 Wet 46.0F - - 32F 5 0% 0.00 in - 0% 0 mhos 7 - None None - -
05/21/2019 00:15 Wet 45.9F - - 32F 5 0% 0.00 in - 0% 0 mhos 7 - None None - -
05/21/2019 00:05 Wet 45.9F - - 32F 5 0% 0.00 in - 0% 0 mhos 7 - None None - -
05/21/2019 00:05 Wet 45.9F - - 32F 5 0% 0.00 in - 0% 0 mhos 7 - None None - -
05/20/2019 23:55 Wet 45.7F - - 32F 5 0% 0.00 in - 0% 0 mhos 7 - None None - -
05/20/2019 23:50 Wet 45.7F - - 32F 5 0% 0.00 in - 0% 0 mhos 7 - Yes - - -
05/20/2019 23:45 Wet 45.7F - - 32F 5 0% 0.00 in - 0% 0 mhos 7 - Yes - - -
05/20/2019 23:35 Wet 45.7F - - 32F 5 0% 0.00 in - 0% 0 mhos 7 - Yes - - -
05/20/2019 23:35 Wet 45.7F - - 32F 5 0% 0.00 in - 0% 0 mhos 7 - Yes - - -
05/20/2019 23:25 Wet 45.7F - - 32F 5 0% 0.00 in - 0% 0 mhos 7 - Yes - - -
05/20/2019 23:20 Wet 45.7F - - 32F 5 0% 0.00 in - 0% 0 mhos 7 - Yes - - -
05/20/2019 23:15 Wet 45.9F - - 32F 5 0% 0.00 in - 0% 0 mhos 9 - Yes - - -
05/20/2019 23:05 Wet 46.0F - - 32F 5 0% 0.00 in - 0% 0 mhos 12 - Yes - - -
05/20/2019 23:05 Wet 46.0F - - 32F 5 0% 0.00 in - 0% 0 mhos 12 - Yes - - -
Date/Time
(MDT)
Sf
Temp Chem Water Layer Surface Precipitation
Sfc Pvt Sub Frz Factor Pct Dpth DpthThk IcePct Cond Salin FI Type Intens Accum Rate
05/20/2019 22:55 Wet 46.4F - - 32F 5 0% 0.00 in - 0% 0 mhos 10 - Yes - - -
05/20/2019 22:50 Wet 46.8F - - 32F 5 0% 0.00 in - 0% 0 mhos 3 - Yes - - -
05/20/2019 22:45 Wet 47.1F - - 32F 5 0% 0.00 in - 0% 0 mhos 2 - Yes - - -
05/20/2019 22:35 Dry 48.2F - - - - - - - - 0 mhos 1 - Yes - - -
05/20/2019 22:35 Dry 48.2F - - - - - - - - 0 mhos 1 - Yes - - -
05/20/2019 22:25 Dry 48.4F - - - - - - - - 0 mhos 0 - Yes - - -
05/20/2019 22:20 Dry 49.3F - - - - - - - - 0 mhos 0 - Yes - - -
05/20/2019 22:14 Dry 49.6F - - - - - - - - 0 mhos 0 - None None - -
05/20/2019 22:05 Dry 49.6F - - - - - - - - 0 mhos 0 - None None - -
05/20/2019 22:04 Dry 49.6F - - - - - - - - 0 mhos 0 - None None - -
05/20/2019 21:54 Dry 49.8F - - - - - - - - 0 mhos 0 - None None - -
05/20/2019 21:50 Dry 49.8F - - - - - - - - 0 mhos 0 - None None - -
05/20/2019 21:44 Dry 50.0F - - - - - - - - 0 mhos 0 - None None - -
05/20/2019 21:35 Dry 50.2F - - - - - - - - 0 mhos 0 - None None - -
05/20/2019 21:34 Dry 50.2F - - - - - - - - 0 mhos 0 - None None - -
Date/Time
(MDT)
Sf
Temp Chem Water Layer Surface Precipitation
Sfc Pvt Sub Frz Factor Pct Dpth DpthThk IcePct Cond Salin FI Type Intens Accum Rate
05/20/2019 21:24 Dry 50.5F - - - - - - - - 0 mhos 0 - None None - -
05/20/2019 21:20 Dry 50.5F - - - - - - - - 0 mhos 0 - None None - -
05/20/2019 21:14 Dry 50.7F - - - - - - - - 0 mhos 0 - None None - -
05/20/2019 21:05 Dry 50.9F - - - - - - - - 0 mhos 0 - None None - -
05/20/2019 21:04 Dry 50.9F - - - - - - - - 0 mhos 0 - None None - -
05/20/2019 20:54 Dry 51.4F - - - - - - - - 0 mhos 0 - None None - -
05/20/2019 20:50 Dry 51.6F - - - - - - - - 0 mhos 0 - None None - -
05/20/2019 20:44 Dry 52.0F - - - - - - - - 0 mhos 0 - None None - -
05/20/2019 20:35 Dry 52.3F - - - - - - - - 0 mhos 0 - None None - -
05/20/2019 20:34 Dry 52.3F - - - - - - - - 0 mhos 0 - None None - -
05/20/2019 20:24 Dry 52.7F - - - - - - - - 0 mhos 0 - None None - -
05/20/2019 20:20 Dry 52.9F - - - - - - - - 0 mhos 0 - None None - -
05/20/2019 20:14 Dry 53.1F - - - - - - - - 0 mhos 0 - None None - -
05/20/2019 20:05 Dry 53.6F - - - - - - - - 0 mhos 0 - None None - -
05/20/2019 20:04 Dry 53.6F - - - - - - - - 0 mhos 0 - None None - -
Date/Time
(MDT)
Sf
Temp Chem Water Layer Surface Precipitation
Sfc Pvt Sub Frz Factor Pct Dpth DpthThk IcePct Cond Salin FI Type Intens Accum Rate
05/20/2019 19:54 Dry 54.3F - - - - - - - - 0 mhos 0 - None None - -
05/20/2019 19:50 Dry 54.7F - - - - - - - - 0 mhos 0 - None None - -
05/20/2019 19:44 Dry 54.9F - - - - - - - - 0 mhos 0 - None None - -
05/20/2019 19:35 Dry 55.9F - - - - - - - - 0 mhos 0 - None None - -
05/20/2019 19:34 Dry 55.9F - - - - - - - - 0 mhos 0 - None None - -
05/20/2019 19:24 Dry 56.1F - - - - - - - - 0 mhos 0 - None None - -
05/20/2019 19:20 Dry 56.3F - - - - - - - - 0 mhos 0 - None None - -
05/20/2019 19:14 Dry 55.8F - - - - - - - - 0 mhos 0 - None None - -
05/20/2019 19:05 Dry 56.3F - - - - - - - - 0 mhos 0 - None None - -
05/20/2019 19:04 Dry 56.3F - - - - - - - - 0 mhos 0 - None None - -
05/20/2019 18:54 Dry 56.8F - - - - - - - - 0 mhos 0 - None None - -
05/20/2019 18:50 Dry 56.8F - - - - - - - - 0 mhos 0 - None None - -
05/20/2019 18:44 Dry 57.0F - - - - - - - - 0 mhos 0 - None None - -
05/20/2019 18:35 Dry 58.3F - - - - - - - - 0 mhos 0 - None None - -
05/20/2019 18:34 Dry 58.3F - - - - - - - - 0 mhos 0 - None None - -
Date/Time
(MDT)
Sf
Temp Chem Water Layer Surface Precipitation
Sfc Pvt Sub Frz Factor Pct Dpth DpthThk IcePct Cond Salin FI Type Intens Accum Rate
05/20/2019 18:24 Dry 58.5F - - - - - - - - 0 mhos 0 - None None - -
05/20/2019 18:20 Dry 58.6F - - - - - - - - 0 mhos 0 - None None - -
05/20/2019 18:14 Dry 58.5F - - - - - - - - 0 mhos 0 - None None - -
05/20/2019 18:05 Dry 57.6F - - - - - - - - 0 mhos 0 - None None - -
05/20/2019 18:04 Dry 57.6F - - - - - - - - 0 mhos 0 - None None - -
05/20/2019 17:54 Dry 57.6F - - - - - - - - 0 mhos 0 - None None - -
05/20/2019 17:50 Dry 57.2F - - - - - - - - 0 mhos 0 - None None - -
05/20/2019 17:44 Dry 56.8F - - - - - - - - 0 mhos 0 - None None - -
05/20/2019 17:35 Dry 57.6F - - - - - - - - 0 mhos 0 - None None - -
05/20/2019 17:34 Dry 58.1F - - - - - - - - 0 mhos 0 - None None - -
05/20/2019 17:24 Dry 59.7F - - - - - - - - 0 mhos 0 - None None - -
05/20/2019 17:20 Dry 60.3F - - - - - - - - 0 mhos 0 - None None - -
05/20/2019 17:14 Dry 60.6F - - - - - - - - 0 mhos 0 - None None - -
05/20/2019 17:05 Dry 60.3F - - - - - - - - 0 mhos 0 - Yes - - -
05/20/2019 17:03 Dry 60.6F - - - - - - - - 0 mhos 0 - Yes - - -
Date/Time
(MDT)
Sf
Temp Chem Water Layer Surface Precipitation
Sfc Pvt Sub Frz Factor Pct Dpth DpthThk IcePct Cond Salin FI Type Intens Accum Rate
05/20/2019 16:53 Dry 62.8F - - - - - - - - 0 mhos 0 - None None - -
05/20/2019 16:50 Dry 63.1F - - - - - - - - 0 mhos 0 - None None - -
05/20/2019 16:43 Dry 62.1F - - - - - - - - 0 mhos 0 - None None - -
05/20/2019 16:35 Dry 62.4F - - - - - - - - 0 mhos 0 - None None - -
05/20/2019 16:33 Dry 62.8F - - - - - - - - 0 mhos 0 - None None - -
05/20/2019 16:23 Dry 66.4F - - - - - - - - 0 mhos 0 - None None - -
05/20/2019 16:20 Dry 64.6F - - - - - - - - 0 mhos 0 - None None - -
05/20/2019 16:13 Dry 64.9F - - - - - - - - 0 mhos 0 - Yes - - -
05/20/2019 16:05 Dry 66.6F - - - - - - - - 0 mhos 0 - None None - -
05/20/2019 16:03 Dry 66.9F - - - - - - - - 0 mhos 0 - None None - -
05/20/2019 15:53 Dry 67.6F - - - - - - - - 0 mhos 0 - None None - -
05/20/2019 15:50 Dry 70.0F - - - - - - - - 0 mhos 0 - None None - -
05/20/2019 15:43 Dry 70.7F - - - - - - - - 0 mhos 0 - Yes - - -
05/20/2019 15:35 Dry 72.5F - - - - - - - - 0 mhos 0 - None None - -
05/20/2019 15:33 Dry 71.4F - - - - - - - - 0 mhos 0 - None None - -
Date/Time
(MDT)
Sf
Temp Chem Water Layer Surface Precipitation
Sfc Pvt Sub Frz Factor Pct Dpth DpthThk IcePct Cond Salin FI Type Intens Accum Rate
05/20/2019 15:23 Dry 62.6F - - - - - - - - 0 mhos 0 - None None - -
05/20/2019 15:20 Dry 60.6F - - - - - - - - 0 mhos 0 - None None - -
05/20/2019 15:13 Dry 57.2F - - - - - - - - 0 mhos 0 - None None - -
05/20/2019 15:05 Dry 55.9F - - - - - - - - 0 mhos 0 - None None - -
05/20/2019 15:03 Dry 55.8F - - - - - - - - 0 mhos 0 - None None - -
05/20/2019 14:53 Dry 55.8F - - - - - - - - 0 mhos 2 - None None - -
05/20/2019 14:50 Dry 55.8F - - - - - - - - 0 mhos 0 - None None - -
05/20/2019 14:43 Dry 56.8F - - - - - - - - 0 mhos 0 - None None - -
05/20/2019 14:35 Dry 57.4F - - - - - - - - 0 mhos 0 - None None - -
05/20/2019 14:33 Dry 57.9F - - - - - - - - 0 mhos 0 - None None - -
05/20/2019 14:23 Dry 59.2F - - - - - - - - 0 mhos 0 - None None - -
05/20/2019 14:20 Dry 59.4F - - - - - - - - 0 mhos 0 - None None - -
05/20/2019 14:13 Dry 59.9F - - - - - - - - 0 mhos 0 - None None - -
05/20/2019 14:05 Dry 59.5F - - - - - - - - 0 mhos 0 - None None - -
05/20/2019 14:03 Dry 59.4F - - - - - - - - 0 mhos 0 - None None - -
Date/Time
(MDT)
Sf
Temp Chem Water Layer Surface Precipitation
Sfc Pvt Sub Frz Factor Pct Dpth DpthThk IcePct Cond Salin FI Type Intens Accum Rate
05/20/2019 13:53 Dry 59.9F - - - - - - - - 0 mhos 0 - None None - -
05/20/2019 13:50 Dry 60.1F - - - - - - - - 0 mhos 0 - None None - -
05/20/2019 13:43 Dry 60.4F - - - - - - - - 0 mhos 0 - None None - -
05/20/2019 13:35 Dry 60.8F - - - - - - - - 0 mhos 0 - None None - -
05/20/2019 13:33 Dry 61.0F - - - - - - - - 0 mhos 0 - None None - -
05/20/2019 13:23 Dry 61.7F - - - - - - - - 0 mhos 0 - None None - -
05/20/2019 13:20 Dry 61.5F - - - - - - - - 0 mhos 0 - None None - -
05/20/2019 13:13 Dry 61.7F - - - - - - - - 0 mhos 0 - None None - -
05/20/2019 13:05 Dry 62.2F - - - - - - - - 0 mhos 0 - None None - -
05/20/2019 13:03 Dry 62.4F - - - - - - - - 0 mhos 0 - None None - -
05/20/2019 12:53 Dry 63.9F - - - - - - - - 0 mhos 0 - None None - -
05/20/2019 12:50 Dry 64.6F - - - - - - - - 0 mhos 0 - None None - -
05/20/2019 12:43 Dry 63.9F - - - - - - - - 0 mhos 0 - None None - -
05/20/2019 12:35 Dry 64.9F - - - - - - - - 0 mhos 0 - None None - -
05/20/2019 12:33 Dry 65.3F - - - - - - - - 0 mhos 0 - None None - -
Date/Time
(MDT)
Sf
Temp Chem Water Layer Surface Precipitation
Sfc Pvt Sub Frz Factor Pct Dpth DpthThk IcePct Cond Salin FI Type Intens Accum Rate
05/20/2019 12:23 Dry 65.3F - - - - - - - - 0 mhos 0 - None None - -
05/20/2019 12:20 Dry 64.9F - - - - - - - - 0 mhos 0 - None None - -
05/20/2019 12:13 Dry 63.3F - - - - - - - - 0 mhos 0 - None None - -
05/20/2019 12:05 Dry 61.9F - - - - - - - - 0 mhos 0 - None None - -
05/20/2019 12:03 Dry 61.9F - - - - - - - - 0 mhos 0 - None None - -
05/20/2019 11:53 Dry 62.2F - - - - - - - - 0 mhos 0 - None None - -
05/20/2019 11:50 Dry 62.1F - - - - - - - - 0 mhos 0 - None None - -
05/20/2019 11:43 Dry 62.8F - - - - - - - - 0 mhos 0 - None None - -
05/20/2019 11:35 Dry 61.9F - - - - - - - - 0 mhos 0 - None None - -
05/20/2019 11:33 Dry 61.9F - - - - - - - - 0 mhos 0 - None None - -
05/20/2019 11:22 Dry 61.3F - - - - - - - - 0 mhos 0 - None None - -
05/20/2019 11:20 Dry 60.6F - - - - - - - - 0 mhos 0 - None None - -
05/20/2019 11:12 Dry 58.1F - - - - - - - - 0 mhos 0 - None None - -
05/20/2019 11:05 Dry 57.2F - - - - - - - - 0 mhos 0 - None None - -
05/20/2019 11:02 Dry 58.1F - - - - - - - - 0 mhos 0 - None None - -
Date/Time
(MDT)
Sf
Temp Chem Water Layer Surface Precipitation
Sfc Pvt Sub Frz Factor Pct Dpth DpthThk IcePct Cond Salin FI Type Intens Accum Rate
05/20/2019 10:52 Dry 59.9F - - - - - - - - 0 mhos 0 - None None - -
05/20/2019 10:50 Dry 59.9F - - - - - - - - 0 mhos 0 - None None - -
05/20/2019 10:42 Dry 60.8F - - - - - - - - 0 mhos 0 - None None - -
05/20/2019 10:35 Dry 61.0F - - - - - - - - 0 mhos 0 - None None - -
05/20/2019 10:32 Dry 61.5F - - - - - - - - 0 mhos 0 - None None - -
05/20/2019 10:22 Dry 61.9F - - - - - - - - 0 mhos 0 - None None - -
05/20/2019 10:20 Dry 61.3F - - - - - - - - 0 mhos 0 - None None - -
05/20/2019 10:12 Dry 60.1F - - - - - - - - 0 mhos 0 - None None - -
05/20/2019 10:05 Dry 60.4F - - - - - - - - 0 mhos 0 - None None - -
05/20/2019 10:02 Dry 59.5F - - - - - - - - 0 mhos 0 - None None - -
05/20/2019 09:52 Dry 60.1F - - - - - - - - 0 mhos 0 - None None - -
05/20/2019 09:50 Dry 59.9F - - - - - - - - 0 mhos 0 - None None - -
05/20/2019 09:42 Dry 59.7F - - - - - - - - 0 mhos 0 - None None - -
05/20/2019 09:35 Dry 61.9F - - - - - - - - 0 mhos 0 - None None - -
05/20/2019 09:32 Dry 62.6F - - - - - - - - 0 mhos 0 - None None - -
Date/Time
(MDT)
Sf
Temp Chem Water Layer Surface Precipitation
Sfc Pvt Sub Frz Factor Pct Dpth DpthThk IcePct Cond Salin FI Type Intens Accum Rate
05/20/2019 09:22 Dry 64.0F - - - - - - - - 0 mhos 0 - None None - -
05/20/2019 09:20 Dry 65.1F - - - - - - - - 0 mhos 0 - None None - -
05/20/2019 09:12 Dry 62.6F - - - - - - - - 0 mhos 0 - None None - -
05/20/2019 09:05 Dry 61.2F - - - - - - - - 0 mhos 0 - None None - -
05/20/2019 09:02 Dry 60.6F - - - - - - - - 0 mhos 0 - None None - -
05/20/2019 08:52 Dry 59.4F - - - - - - - - 0 mhos 0 - None None - -
05/20/2019 08:50 Dry 57.0F - - - - - - - - 0 mhos 0 - None None - -
05/20/2019 08:42 Dry 56.7F - - - - - - - - 0 mhos 0 - None None - -
05/20/2019 08:35 Dry 56.3F - - - - - - - - 0 mhos 0 - None None - -
05/20/2019 08:32 Dry 55.8F - - - - - - - - 0 mhos 0 - None None - -
05/20/2019 08:22 Dry 53.8F - - - - - - - - 0 mhos 0 - None None - -
05/20/2019 08:20 Dry 53.6F - - - - - - - - 0 mhos 0 - None None - -
05/20/2019 08:12 Dry 51.8F - - - - - - - - 0 mhos 1 - None None - -
05/20/2019 08:05 Dry 49.8F - - - - - - - - 0 mhos 1 - None None - -
05/20/2019 08:02 Dry 49.3F - - - - - - - - 0 mhos 0 - None None - -
Date/Time
(MDT)
Sf
Temp Chem Water Layer Surface Precipitation
Sfc Pvt Sub Frz Factor Pct Dpth DpthThk IcePct Cond Salin FI Type Intens Accum Rate
05/20/2019 07:52 Dry 45.7F - - - - - - - - 0 mhos 0 - None None - -
05/20/2019 07:50 Dry 44.4F - - - - - - - - 0 mhos 0 - None None - -
05/20/2019 07:42 Dry 44.6F - - - - - - - - 0 mhos 0 - None None - -
05/20/2019 07:35 Dry 44.1F - - - - - - - - 0 mhos 0 - None None - -
05/20/2019 07:32 Dry 43.5F - - - - - - - - 0 mhos 0 - None None - -
05/20/2019 07:22 Dry 42.6F - - - - - - - - 0 mhos 0 - None None - -
05/20/2019 07:20 Dry 42.3F - - - - - - - - 0 mhos 0 - None None - -
05/20/2019 07:12 Dry 41.7F - - - - - - - - 0 mhos 0 - None None - -
05/20/2019 07:05 Dry 41.4F - - - - - - - - 0 mhos 0 - None None - -
05/20/2019 07:02 Dry 41.2F - - - - - - - - 0 mhos 0 - None None - -
05/20/2019 06:52 Dry 40.6F - - - - - - - - 0 mhos 0 - None None - -
05/20/2019 06:50 Dry 40.6F - - - - - - - - 0 mhos 0 - None None - -
05/20/2019 06:42 Dry 40.5F - - - - - - - - 0 mhos 0 - None None - -
05/20/2019 06:35 Dry 40.1F - - - - - - - - 0 mhos 0 - None None - -
05/20/2019 06:32 Dry 40.1F - - - - - - - - 0 mhos 0 - None None - -
Date/Time
(MDT)
Sf
Temp Chem Water Layer Surface Precipitation
Sfc Pvt Sub Frz Factor Pct Dpth DpthThk IcePct Cond Salin FI Type Intens Accum Rate
05/20/2019 06:22 Dry 39.6F - - - - - - - - 0 mhos 0 - None None - -
05/20/2019 06:20 Dry 39.6F - - - - - - - - 0 mhos 0 - None None - -
05/20/2019 06:12 Dry 39.4F - - - - - - - - 0 mhos 0 - None None - -
05/20/2019 06:05 Dry 39.2F - - - - - - - - 0 mhos 0 - None None - -
05/20/2019 06:02 Dry 39.2F - - - - - - - - 0 mhos 0 - None None - -
05/20/2019 05:51 Dry 39.2F - - - - - - - - 0 mhos 0 - None None - -
05/20/2019 05:50 Dry 39.2F - - - - - - - - 0 mhos 0 - None None - -
05/20/2019 05:41 Dry 39.0F - - - - - - - - 0 mhos 0 - None None - -
05/20/2019 05:35 Dry 38.8F - - - - - - - - 0 mhos 0 - None None - -
05/20/2019 05:31 Dry 38.8F - - - - - - - - 0 mhos 0 - None None - -
05/20/2019 05:21 Dry 38.7F - - - - - - - - 0 mhos 0 - None None - -
05/20/2019 05:20 Dry 38.5F - - - - - - - - 0 mhos 0 - None None - -
05/20/2019 05:11 Dry 38.3F - - - - - - - - 0 mhos 0 - None None - -
05/20/2019 05:05 Dry 37.9F - - - - - - - - 0 mhos 0 - None None - -
05/20/2019 05:01 Dry 37.9F - - - - - - - - 0 mhos 0 - None None - -
Date/Time
(MDT)
Sf
Temp Chem Water Layer Surface Precipitation
Sfc Pvt Sub Frz Factor Pct Dpth DpthThk IcePct Cond Salin FI Type Intens Accum Rate
05/20/2019 04:51 Dry 37.4F - - - - - - - - 0 mhos 0 - None None - -
05/20/2019 04:50 Dry 37.4F - - - - - - - - 0 mhos 0 - None None - -
05/20/2019 04:41 Dry 37.9F - - - - - - - - 0 mhos 0 - None None - -
05/20/2019 04:35 Dry 37.9F - - - - - - - - 0 mhos 0 - None None - -
05/20/2019 04:31 Dry 37.9F - - - - - - - - 0 mhos 0 - None None - -
05/20/2019 04:21 Dry 38.3F - - - - - - - - 0 mhos 0 - None None - -
05/20/2019 04:20 Dry 38.3F - - - - - - - - 0 mhos 0 - None None - -
05/20/2019 04:11 Dry 38.8F - - - - - - - - 0 mhos 0 - None None - -
05/20/2019 04:05 Dry 38.7F - - - - - - - - 0 mhos 0 - None None - -
05/20/2019 04:01 Dry 38.7F - - - - - - - - 0 mhos 0 - None None - -
05/20/2019 03:51 Dry 38.7F - - - - - - - - 0 mhos 0 - None None - -
05/20/2019 03:50 Dry 38.8F - - - - - - - - 0 mhos 0 - None None - -
Change End Date:

Copyright © 1998-2015 Vaisala, Inc.
All Rights Reserved
Send comments about the data to:
SCAN Web ® is a registered trademark of Vaisala, Inc.
SCAN Web Version 6.0